Time,TemperatureF,DewpointF,PressureIn,WindDirection,WindDirectionDegrees,WindSpeedMPH,WindSpeedGustMPH,Humidity,HourlyPrecipIn,Conditions,Clouds,dailyrainin,SolarRadiationWatts/m^2,SoftwareType,DateUTC
2013-02-11 01:12:00,14.0,2.0,30.10,South,169,5.0,5.0,58,-99.99,,,-99.99,0.000000,,2013-02-11 09:12:00,
2013-02-11 01:20:00,14.0,2.0,30.11,SW,227,3.0,5.0,58,-99.99,,,-99.99,0.000000,,2013-02-11 09:20:00,
2013-02-11 02:11:00,14.0,2.0,30.11,SW,227,3.0,5.0,58,-99.99,,,-99.99,0.000000,,2013-02-11 10:11:00,
2013-02-11 03:11:00,9.0,-1.0,30.12,ESE,103,2.0,3.0,62,-99.99,,,-99.99,0.000000,,2013-02-11 11:11:00,
2013-02-11 05:20:00,5.0,-3.0,30.13,SSW,206,1.0,3.0,67,-99.99,,,-99.99,0.000000,,2013-02-11 13:20:00,
2013-02-11 06:11:00,5.0,-3.0,30.13,SSW,206,1.0,3.0,67,-99.99,,,-99.99,0.000000,,2013-02-11 14:11:00,
2013-02-11 08:01:00,5.0,-2.0,30.17,North,6,1.0,3.0,70,-99.99,,,-99.99,37.000000,,2013-02-11 16:01:00,
2013-02-11 08:20:00,17.0,6.0,30.19,SW,235,0.0,1.0,62,-99.99,,,-99.99,220.000000,,2013-02-11 16:20:00,
2013-02-11 09:11:00,17.0,6.0,30.19,SW,235,0.0,1.0,62,-99.99,,,-99.99,220.000000,,2013-02-11 17:11:00,
2013-02-11 09:20:00,25.0,8.0,30.19,NW,324,1.0,3.0,47,-99.99,,,-99.99,392.000000,,2013-02-11 17:20:00,
2013-02-11 10:11:00,25.0,8.0,30.19,NW,324,1.0,3.0,47,-99.99,,,-99.99,392.000000,,2013-02-11 18:11:00,
2013-02-11 10:20:00,35.0,13.0,30.20,West,266,1.0,3.0,40,-99.99,,,-99.99,532.000000,,2013-02-11 18:20:00,
2013-02-11 11:11:00,35.0,13.0,30.20,West,266,1.0,3.0,40,-99.99,,,-99.99,532.000000,,2013-02-11 19:11:00,
2013-02-11 11:20:00,38.0,9.0,30.20,WSW,245,4.0,7.0,29,-99.99,,,-99.99,620.000000,,2013-02-11 19:20:00,
2013-02-11 12:20:00,40.0,6.0,30.18,WNW,287,5.0,11.0,24,-99.99,,,-99.99,646.000000,,2013-02-11 20:20:00,
2013-02-11 13:20:00,41.0,6.0,30.16,NE,52,3.0,7.0,23,-99.99,,,-99.99,614.000000,,2013-02-11 21:20:00,
2013-02-11 14:20:00,43.0,6.0,30.15,East,80,3.0,6.0,21,-99.99,,,-99.99,523.000000,,2013-02-11 22:20:00,
2013-02-11 15:11:00,43.0,6.0,30.15,East,80,3.0,6.0,21,-99.99,,,-99.99,523.000000,,2013-02-11 23:11:00,
2013-02-11 16:20:00,43.0,3.0,30.15,NE,42,6.0,9.0,18,-99.99,,,-99.99,207.000000,,2013-02-12 00:20:00,
2013-02-11 17:11:00,43.0,3.0,30.15,NE,42,6.0,9.0,18,-99.99,,,-99.99,207.000000,,2013-02-12 01:11:00,
2013-02-11 17:20:00,41.0,4.0,30.16,NE,48,5.0,7.0,21,-99.99,,,-99.99,23.000000,,2013-02-12 01:20:00,
2013-02-11 18:11:00,41.0,4.0,30.16,NE,48,5.0,7.0,21,-99.99,,,-99.99,23.000000,,2013-02-12 02:11:00,
2013-02-11 18:20:00,36.0,4.0,30.18,ENE,64,5.0,7.0,26,-99.99,,,-99.99,0.000000,,2013-02-12 02:20:00,
2013-02-11 19:11:00,36.0,4.0,30.18,ENE,64,5.0,7.0,26,-99.99,,,-99.99,0.000000,,2013-02-12 03:11:00,
2013-02-11 19:20:00,29.0,2.0,30.20,North,350,2.0,3.0,31,-99.99,,,-99.99,0.000000,,2013-02-12 03:20:00,
2013-02-11 20:11:00,29.0,2.0,30.20,North,350,2.0,3.0,31,-99.99,,,-99.99,0.000000,,2013-02-12 04:11:00,
2013-02-11 20:20:00,24.0,1.0,30.21,East,101,4.0,5.0,36,-99.99,,,-99.99,0.000000,,2013-02-12 04:20:00,
2013-02-11 21:20:00,22.0,1.0,30.23,NE,45,1.0,3.0,40,-99.99,,,-99.99,0.000000,,2013-02-12 05:20:00,
2013-02-11 22:12:00,22.0,1.0,30.23,NE,45,1.0,3.0,40,-99.99,,,-99.99,0.000000,,2013-02-12 06:12:00,
2013-02-11 23:11:00,19.0,1.0,30.24,East,99,2.0,3.0,44,-99.99,,,-99.99,0.000000,,2013-02-12 07:11:00,
2013-02-11 23:20:00,18.0,1.0,30.24,SE,124,3.0,4.0,47,-99.99,,,-99.99,0.000000,,2013-02-12 07:20:00,